Regional Weather Roundup
Issued by NWS

Home | Current Version | Previous Version | Graphics & Text | Print | Product List | Glossary On
Versions: 1 2 3 4 5 6 7 8 9 10 11 12 13 14 15 16 17 18 19 20 21 22 23 24 25 26 27 28 29 30 31 32 33 34 35 36 37 38 39 40 41 42 43 44 45 46 47 48 49 50
000
ASUS43 KLSX 172359
RWRMO

WEATHER SUMMARY FOR MISSOURI
NATIONAL WEATHER SERVICE SPRINGFIELD MO
700 PM CDT WED SEP 17 2014

NOTE: "FAIR" INDICATES FEW OR NO CLOUDS BELOW 12,000 FEET WITH NO
       SIGNIFICANT WEATHER AND/OR OBSTRUCTIONS TO VISIBILITY.
       CURRENT SKY AND/OR WEATHER CONDITIONS ARE NOT AVAILABLE FOR
       CHILLICOTHE AND FARMINGTON.

MOZ001>031-035>038-043-044-053-054-180100-
...NORTHERN AND WESTERN MISSOURI...

CITY           SKY/WX    TMP DP  RH WIND       PRES   REMARKS
KANSAS CTY INT CLEAR     71  65  81 SE6       29.90S
6HR MIN TEMP:  71; 6HR MAX TEMP:  74;

KANSAS C DTWN  PTCLDY    72  66  81 E9        29.89S
6HR MIN TEMP:  70; 6HR MAX TEMP:  75;

LEE`S SUMMIT   PTCLDY    71  66  84 E3        29.91R
6HR MIN TEMP:  67; 6HR MAX TEMP:  74;

ST JOSEPH      PTCLDY    75  66  73 SE3       29.89S
6HR MIN TEMP:  69; 6HR MAX TEMP:  79;

KIRKSVILLE     PTCLDY    67  61  81 E5        29.94R
6HR MIN TEMP:  67; 6HR MAX TEMP:  72;


$$
MOZ066>068-077>081-088>096-101>105-180100-
...SOUTHWEST MISSOURI...

CITY           SKY/WX    TMP DP  RH WIND       PRES   REMARKS
SPRINGFIELD    CLEAR     68  64  87 S5        29.89F
6HR MIN TEMP:  64; 6HR MAX TEMP:  70; 6HR PCP:  0.14;

JOPLIN         PTCLDY    72  64  76 SE6       29.87S
6HR MIN TEMP:  70; 6HR MAX TEMP:  88; 6HR PCP: TRACE;


$$
MOZ032>034-039>042-045>050-055>058-069>072-180100-
...CENTRAL MISSOURI...

CITY           SKY/WX    TMP DP  RH WIND       PRES   REMARKS
COLUMBIA       CLOUDY    63  61  93 NE6       29.94R FOG
6HR MIN TEMP:  63; 6HR MAX TEMP:  67;

JEFFERSON CITY CLOUDY    66  63  90 NE5       29.92S
6HR MIN TEMP:  66; 6HR MAX TEMP:  71;

ROLLA          CLOUDY    64  62  93 SE7       29.91F FOG
6HR MIN TEMP:  64; 6HR MAX TEMP:  67;

SEDALIA        CLOUDY    70  66  87 E7        29.92R
6HR MIN TEMP:  69; 6HR MAX TEMP:  74;

OSAGE BEACH    CLOUDY    72  64  78 E5        29.90S

$$
MOZ051-052-059>065-180100-
...EAST CENTRAL MISSOURI...

CITY           SKY/WX    TMP DP  RH WIND       PRES   REMARKS
ST LOUIS INTL  LGT RAIN  64  56  75 E8        29.96R
6HR MIN TEMP:  62; 6HR MAX TEMP:  67; 6HR PCP: TRACE;

SPIRIT OF STL  CLOUDY    63  60  90 E5        29.95R FOG
6HR MIN TEMP:  63; 6HR MAX TEMP:  68;

ST CHARLES     CLOUDY    62  57  83 E5        29.96R HAZE
6HR MIN TEMP:  59; 6HR MAX TEMP:  63; 6HR PCP:  0.01;


$$
MOZ072>076-082>087-097>100-106>115-180100-
...SOUTH CENTRAL AND SOUTHEAST MISSOURI...

CITY           SKY/WX    TMP DP  RH WIND       PRES   REMARKS
CAPE GIRARDEAU CLOUDY    65  59  81 CALM      29.96S
6HR MIN TEMP:  61; 6HR MAX TEMP:  67;

FARMINGTON     CLOUDY    61  57  88 S5        29.98S
6HR MIN TEMP:  57; 6HR MAX TEMP:  61;

POPLAR BLUFF   CLOUDY    63  58  83 E3        29.94F
6HR MIN TEMP:  59; 6HR MAX TEMP:  64; 6HR PCP: TRACE;

WEST PLAINS    MOCLDY    65  61  87 CALM      29.93F
6HR MIN TEMP:  62; 6HR MAX TEMP:  66; 6HR PCP:  0.09;


$$


USA.gov is the U.S. government's official web portal to all federal, state and local government web resources and services.